| time (UTC) | temp F | wind direction | speed MPH | gust MPH | rain 1hr in | rain 24hr in | rain mn in | humidity % | barometer mb |
| 20260507023048 | 64 | 28 | 7.0 | 13.0 | 0.00 | 0.00 | 0.00 | 74 | 1017.8 |
| 20260507021543 | 66 | 352 | 5.0 | 12.0 | 0.00 | 0.00 | 0.00 | 71 | 1017.6 |
| 20260507020048 | 67 | 360 | 5.0 | 13.0 | 0.00 | 0.00 | 0.00 | 68 | 1017.6 |
| 20260507014553 | 68 | 360 | 9.0 | 15.0 | 0.00 | 0.00 | 0.00 | 65 | 1017.5 |
| 20260507013056 | 68 | 344 | 7.0 | 13.0 | 0.00 | 0.00 | 0.00 | 64 | 1017.5 |
| 20260507011548 | 69 | 348 | 8.0 | 14.0 | 0.00 | 0.00 | 0.00 | 62 | 1017.4 |
| 20260507010054 | 70 | 330 | 7.0 | 16.0 | 0.00 | 0.00 | 0.00 | 61 | 1017.4 |
| 20260507004551 | 70 | 22 | 8.0 | 14.0 | 0.00 | 0.00 | 0.00 | 61 | 1017.5 |
| 20260507003047 | 71 | 340 | 8.0 | 13.0 | 0.00 | 0.00 | 0.00 | 60 | 1017.4 |
| 20260507001549 | 71 | 19 | 8.0 | 15.0 | 0.00 | 0.00 | 0.00 | 60 | 1017.3 |
| 20260507000042 | 72 | 298 | 6.0 | 13.0 | 0.00 | 0.00 | 0.00 | 57 | 1017.3 |
| 20260506234549 | 72 | 348 | 6.0 | 13.0 | 0.00 | 0.00 | 0.00 | 57 | 1017.2 |
| 20260506233059 | 73 | 328 | 5.0 | 13.0 | 0.00 | 0.00 | 0.00 | 57 | 1017.2 |
| 20260506231544 | 73 | 351 | 7.0 | 13.0 | 0.00 | 0.00 | 0.00 | 56 | 1017.4 |
| 20260506230044 | 73 | 352 | 7.0 | 15.0 | 0.00 | 0.00 | 0.00 | 57 | 1017.5 |
| 20260506224540 | 73 | 325 | 8.0 | 16.0 | 0.00 | 0.00 | 0.00 | 56 | 1017.5 |
| 20260506223042 | 73 | 5 | 7.0 | 12.0 | 0.00 | 0.00 | 0.00 | 55 | 1017.6 |
| 20260506221555 | 72 | 15 | 7.0 | 12.0 | 0.00 | 0.00 | 0.00 | 56 | 1017.7 |
| 20260506220049 | 72 | 223 | 5.0 | 11.0 | 0.00 | 0.00 | 0.00 | 55 | 1017.9 |
| 20260506214543 | 72 | 275 | 3.0 | 9.0 | 0.00 | 0.00 | 0.00 | 56 | 1018.1 |
| 20260506213049 | 72 | 180 | 1.0 | 11.0 | 0.00 | 0.00 | 0.00 | 56 | 1018.2 |
| 20260506211551 | 71 | 282 | 5.0 | 11.0 | 0.00 | 0.00 | 0.00 | 59 | 1018.4 |
| 20260506210049 | 70 | 360 | 6.0 | 12.0 | 0.00 | 0.00 | 0.00 | 59 | 1018.6 |
| 20260506204554 | 69 | 26 | 3.0 | 11.0 | 0.00 | 0.00 | 0.00 | 60 | 1018.8 |
| 20260506203045 | 70 | 0 | 3.0 | 9.0 | 0.00 | 0.00 | 0.00 | 59 | 1019.0 |
| 20260506201544 | 69 | 259 | 3.0 | 13.0 | 0.00 | 0.00 | 0.00 | 61 | 1019.2 |
| 20260506200048 | 68 | 5 | 3.0 | 11.0 | 0.00 | 0.00 | 0.00 | 62 | 1019.4 |
| 20260506194554 | 68 | 345 | 3.0 | 9.0 | 0.00 | 0.00 | 0.00 | 62 | 1019.4 |
| 20260506193048 | 67 | 303 | 3.0 | 8.0 | 0.00 | 0.00 | 0.00 | 63 | 1019.5 |
| 20260506191543 | 66 | 57 | 4.0 | 9.0 | 0.00 | 0.00 | 0.00 | 65 | 1019.7 |
| 20260506190052 | 66 | 345 | 1.0 | 9.0 | 0.00 | 0.00 | 0.00 | 65 | 1019.8 |
| 20260506184549 | 65 | 325 | 3.0 | 8.0 | 0.00 | 0.00 | 0.00 | 67 | 1019.9 |
| 20260506183043 | 64 | 336 | 2.0 | 8.0 | 0.00 | 0.00 | 0.00 | 69 | 1020.1 |
| 20260506181557 | 63 | 360 | 3.0 | 8.0 | 0.00 | 0.00 | 0.00 | 70 | 1020.1 |
| 20260506180055 | 62 | 348 | 4.0 | 10.0 | 0.00 | 0.00 | 0.00 | 71 | 1020.1 |
| 20260506174547 | 62 | 220 | 3.0 | 10.0 | 0.00 | 0.00 | 0.00 | 71 | 1020.3 |
| 20260506173103 | 61 | 313 | 3.0 | 8.0 | 0.00 | 0.00 | 0.00 | 73 | 1020.3 |
| 20260506171552 | 61 | 294 | 4.0 | 8.0 | 0.00 | 0.00 | 0.00 | 74 | 1020.3 |
| 20260506170100 | 60 | 281 | 3.0 | 8.0 | 0.00 | 0.00 | 0.00 | 76 | 1020.3 |
| 20260506164554 | 59 | 298 | 2.0 | 7.0 | 0.00 | 0.00 | 0.00 | 78 | 1020.3 |
| 20260506163044 | 59 | 273 | 4.0 | 8.0 | 0.00 | 0.00 | 0.00 | 77 | 1020.3 |
| 20260506161548 | 59 | 283 | 2.0 | 6.0 | 0.00 | 0.00 | 0.00 | 78 | 1020.4 |
| 20260506160104 | 59 | 334 | 3.0 | 8.0 | 0.00 | 0.00 | 0.00 | 78 | 1020.3 |
| 20260506154552 | 58 | 346 | 3.0 | 9.0 | 0.00 | 0.00 | 0.00 | 79 | 1020.3 |
| 20260506153050 | 58 | 305 | 4.0 | 8.0 | 0.00 | 0.00 | 0.00 | 80 | 1020.3 |
| 20260506151550 | 57 | 305 | 2.0 | 8.0 | 0.00 | 0.00 | 0.00 | 81 | 1020.4 |
| 20260506150044 | 57 | 286 | 2.0 | 6.0 | 0.00 | 0.00 | 0.00 | 81 | 1020.3 |
| 20260506144546 | 57 | 352 | 2.0 | 5.0 | 0.00 | 0.00 | 0.00 | 82 | 1020.4 |
| 20260506143044 | 56 | 302 | 1.0 | 4.0 | 0.00 | 0.00 | 0.00 | 82 | 1020.3 |
| 20260506141607 | 56 | 281 | 2.0 | 5.0 | 0.00 | 0.00 | 0.00 | 81 | 1020.3 |
| 20260506140053 | 56 | 329 | 2.0 | 5.0 | 0.00 | 0.00 | 0.00 | 82 | 1020.1 |
| 20260506134543 | 56 | 0 | 0.0 | 4.0 | 0.00 | 0.00 | 0.00 | 82 | 1019.9 |
| 20260506133047 | 56 | 292 | 1.0 | 4.0 | 0.00 | 0.00 | 0.00 | 82 | 1019.6 |
| 20260506131554 | 56 | 293 | 1.0 | 4.0 | 0.00 | 0.00 | 0.00 | 82 | 1019.4 |
| 20260506130042 | 56 | 306 | 2.0 | 3.0 | 0.00 | 0.00 | 0.00 | 81 | 1019.3 |
| 20260506124544 | 56 | 351 | 1.0 | 3.0 | 0.00 | 0.00 | 0.00 | 81 | 1019.2 |
| 20260506123049 | 56 | 352 | 0.0 | 4.0 | 0.00 | 0.00 | 0.00 | 81 | 1019.2 |
| 20260506121555 | 57 | 336 | 2.0 | 5.0 | 0.00 | 0.00 | 0.00 | 81 | 1019.2 |
| 20260506120115 | 57 | 352 | 2.0 | 4.0 | 0.00 | 0.00 | 0.00 | 81 | 1019.1 |
| 20260506114549 | 57 | 5 | 1.0 | 7.0 | 0.00 | 0.00 | 0.00 | 81 | 1018.9 |
| 20260506113045 | 57 | 325 | 1.0 | 3.0 | 0.00 | 0.00 | 0.00 | 81 | 1018.9 |
| 20260506111546 | 57 | 0 | 0.0 | 2.0 | 0.00 | 0.00 | 0.00 | 81 | 1018.7 |
| 20260506110051 | 57 | 0 | 0.0 | 3.0 | 0.00 | 0.00 | 0.00 | 81 | 1018.7 |
| 20260506104550 | 57 | 259 | 0.0 | 3.0 | 0.00 | 0.00 | 0.00 | 81 | 1018.7 |
| 20260506103052 | 57 | 292 | 0.0 | 3.0 | 0.00 | 0.00 | 0.00 | 81 | 1018.6 |
| 20260506101549 | 57 | 266 | 1.0 | 3.0 | 0.00 | 0.00 | 0.00 | 81 | 1018.7 |
| 20260506100054 | 57 | 291 | 1.0 | 3.0 | 0.00 | 0.00 | 0.00 | 81 | 1018.7 |
| 20260506094549 | 57 | 275 | 1.0 | 3.0 | 0.00 | 0.00 | 0.00 | 81 | 1018.7 |
| 20260506093054 | 57 | 304 | 1.0 | 4.0 | 0.00 | 0.00 | 0.00 | 81 | 1018.7 |
| 20260506091551 | 57 | 325 | 1.0 | 4.0 | 0.00 | 0.00 | 0.00 | 81 | 1018.9 |
| 20260506090046 | 57 | 271 | 2.0 | 5.0 | 0.00 | 0.00 | 0.00 | 81 | 1018.7 |
| 20260506084549 | 57 | 299 | 1.0 | 4.0 | 0.00 | 0.00 | 0.00 | 81 | 1018.7 |
| 20260506083045 | 57 | 348 | 1.0 | 3.0 | 0.00 | 0.00 | 0.00 | 80 | 1018.7 |
| 20260506081551 | 57 | 300 | 2.0 | 5.0 | 0.00 | 0.00 | 0.00 | 80 | 1018.7 |
| 20260506073055 | 57 | 346 | 2.0 | 6.0 | 0.00 | 0.00 | 0.00 | 80 | 1018.3 |
| 20260506071548 | 58 | 13 | 2.0 | 8.0 | 0.00 | 0.00 | 0.00 | 79 | 1018.2 |
| 20260506070109 | 58 | 9 | 3.0 | 8.0 | 0.00 | 0.00 | 0.00 | 79 | 1018.2 |
| 20260506061546 | 58 | 360 | 2.0 | 7.0 | 0.00 | 0.00 | 0.00 | 78 | 1017.9 |
| 20260506044553 | 59 | 300 | 2.0 | 5.0 | 0.00 | 0.00 | 0.00 | 72 | 1017.3 |
| 20260506043049 | 59 | 312 | 2.0 | 4.0 | 0.00 | 0.00 | 0.00 | 72 | 1017.2 |
| 20260506041554 | 59 | 311 | 0.0 | 4.0 | 0.00 | 0.00 | 0.00 | 73 | 1017.0 |
| 20260506040046 | 59 | 341 | 1.0 | 4.0 | 0.00 | 0.00 | 0.00 | 73 | 1016.8 |
| 20260506034542 | 59 | 292 | 1.0 | 4.0 | 0.00 | 0.00 | 0.00 | 73 | 1016.7 |
| 20260506033048 | 59 | 267 | 2.0 | 4.0 | 0.00 | 0.00 | 0.00 | 73 | 1016.4 |
| 20260506031556 | 60 | 316 | 2.0 | 4.0 | 0.00 | 0.00 | 0.00 | 72 | 1016.2 |
| 20260506030109 | 60 | 294 | 2.0 | 7.0 | 0.00 | 0.00 | 0.00 | 72 | 1016.0 |
| 20260506024544 | 60 | 289 | 3.0 | 6.0 | 0.00 | 0.00 | 0.00 | 72 | 1015.9 |